Regional Weather Roundup
Issued by NWS Newport/Morehead, NC

Current Version | Previous Version | Graphics & Text | Print | Product List | Glossary On
Versions: 1 2 3 4 5 6 7 8 9 10 11 12 13 14 15 16 17 18 19 20 21 22 23 24 25 26 27 28 29 30 31 32 33 34 35 36 37 38 39 40 41 42 43 44 45 46 47 48 49 50
000 ASUS42 KMHX 012310 RWRMHX WEATHER ROUNDUP FOR EASTERN NORTH CAROLINA NATIONAL WEATHER SERVICE NEWPORT/MOREHEAD CITY NC 600 PM EST SUN FEB 01 2015 NOTE: "FAIR" INDICATES FEW OR NO CLOUDS BELOW 12,000 FEET WITH NO SIGNIFICANT WEATHER AND/OR OBSTRUCTIONS TO VISIBILITY NCZ015>017-031-032-045>047-102-103-020000- NORTH COAST CITY SKY/WX TMP DP RH WIND PRES REMARKS EDENTON CLOUDY 47 33 56 S6 30.13F ELIZABETH CITY CLOUDY 44 32 62 SE6 30.13F KITTY HAWK CLOUDY 45 31 58 S3 30.13F MANTEO CLOUDY 43 34 70 S7 30.15F $$ NCZ045>047-081-094-103-104-020000- CENTRAL COAST CITY SKY/WX TMP DP RH WIND PRES REMARKS FRISCO CLOUDY 51 40 65 SW3 30.16F SWANQUARTER N/A 45 N/A N/A SE6 30.12S $$ NCZ095-097-098-100-101-020000- SOUTHERN COAST CITY SKY/WX TMP DP RH WIND PRES REMARKS BEAUFORT MOCLDY 48 41 76 E5 30.15S CEDAR ISLAND N/A 46 N/A N/A SE2 30.18S JACKSONVILLE CLOUDY 53 38 56 S6 30.12F PINEY ISLAND N/A N/A N/A N/A MISG 30.15S WILMINGTON CLOUDY 54 42 64 SE3 30.11F $$ NCZ011>013-027>030-043-044-078>080-089-090>093-098-020000- COASTAL PLAIN CITY SKY/WX TMP DP RH WIND PRES REMARKS AHOSKIE CLOUDY 47 24 39 S6 30.10F CLINTON CLOUDY 56 39 52 S6 30.08F ELIZABETHTOWN CLOUDY 57 36 45 SE5 30.08F GOLDSBORO CLOUDY 52 34 50 E5 30.06F GREENVILLE CLOUDY 52 27 37 SE3 30.12F HAVELOCK CLOUDY 52 38 58 S3 30.15S KENANSVILLE CLOUDY 56 36 47 CALM 30.11F KINSTON NOT AVBL NEW BERN CLOUDY 55 36 48 S6 30.14F RICHLANDS CLOUDY 54 37 54 S6 30.12F ROCKY MOUNT CLOUDY 51 24 34 SE5 30.07F WASHINGTON CLOUDY 48 26 41 SE3 30.12F WHITEVILLE NOT AVBL $$ AMZ130-135-150-152-154-156-158-170-250-252-270-ANZ085-086-088-633-658-670-020000- MARINE OBSERVATIONS STATION/POSITION TIME TEMP WIND PRES WAVE SWELL AIR SEA DIR/SP/G HT/PER HT/PER (UTC) (F) (DEG/KT/KT) (MB) (FT/S) (FT/S) CHESAPEAKE LIGHT 2200 41 170/ 14/ 14 1021.1 64 E VA BEACH 2300 46 47 190/ 10/ 14 1020.7 3/11 2/11 DUCK 2300 42 40 150/ 10/ 11 1019.7 2 E DUCK 2300 40 N/A 3/10 2/12 10 NE DUCK 2300 44 N/A 3/12 2/12 OREGON INLET 2300 44 37 160/ 7/ 10 1020.9 13E OREGON INLT 2200 46 N/A 4/10 2/11 HATTERAS CG 2300 51 46 200/ 1/ 4 1021.4 DIAMOND BUOY 2300 60 71 230/ 14/ 19 1021.0 4/ 9 3/ 9 17 S OCRACOKE NOT AVBL CAPE LOOKOUT 2200 51 100/ 4/ 5 1020.8 BEAUFORT LAB 2300 49 46 110/ 4/ 5 1019.8 27 SE WRIGHTSVLE NOT AVBL 5 SE WRIGHTSVLE 2200 55 53 150/ 6/ 6 1020.2 225 S CAPE HAT 2246 63 71 180/ 14/ 17 1023.9 7/10 7/10 41 SE CHARLESTON 2300 67 71 170/ 21/ 27 1017.8 5/ 4 3/11 $$

USA.gov is the U.S. government's official web portal to all federal, state and local government web resources and services.